Latest Coastal Weather Observations for Bedout Island

IDW60701

Issued at 4:42 pm WST Thursday 26 May 2016 (issued every 10 minutes, with the page automatically refreshed every 10 minutes)

About coastal observations | Map of coastal stations | Coastal observations for WA | Marine services | Other Formats
Station Details ID: 004100 Name: BEDOUT ISLAND Lat: -19.59 Lon: 119.10 Height: 8.6 m
Data from the previous 72 hours. | See also: Recent months at Bedout Island
Date/Time
WST
Temp

°C
Wind Pressure Rain
since 9am
mm
Weather Cloud Vis
km
Sea
Height
m
Swell
Dir
 
Speed
knots
Gust
knots
hPa Trend Height
m
Period
s
Dir
26/04:30pm 27.1 W 10 12 1012.9 - - - - - - - - -
26/04:00pm 27.8 W 10 11 1013.0 - - - - - - - - -
26/03:30pm 28.0 W 10 11 1013.3 - - - - - - - - -
26/03:00pm 28.1 W 9 11 1013.3 - - - - - - - - -
26/02:30pm 28.1 W 9 11 1013.4 - - - - - - - - -
26/02:00pm 28.5 W 9 11 1013.6 - - - - - - - - -
26/01:30pm 28.2 W 8 10 1013.8 - - - - - - - - -
26/01:00pm 28.4 W 8 9 1014.1 - - - - - - - - -
26/12:30pm 28.3 W 7 9 1014.3 - - - - - - - - -
26/12:00pm 28.3 W 8 10 1014.7 - - - - - - - - -
26/11:30am 28.5 W 10 11 1015.3 - - - - - - - - -
26/11:00am 29.2 W 9 11 1015.6 - - - - - - - - -
26/10:30am 28.6 W 10 12 1015.9 - - - - - - - - -
26/10:00am 27.4 W 9 11 1015.9 - - - - - - - - -
26/09:30am 28.1 W 10 12 1015.9 - - - - - - - - -
26/09:00am 27.7 W 11 14 1015.6 - - - - - - - - -
26/08:30am 26.9 W 13 15 1015.4 - - - - - - - - -
26/08:00am 27.0 W 11 14 1015.1 - - - - - - - - -
26/07:30am 25.9 W 12 13 1014.7 - - - - - - - - -
26/07:00am 25.3 W 11 15 1014.4 - - - - - - - - -
26/06:30am 25.2 W 13 16 1014.1 - - - - - - - - -
26/06:00am 25.2 W 13 15 1013.6 - - - - - - - - -
26/05:30am 25.2 W 12 15 1013.6 - - - - - - - - -
26/05:00am 25.2 W 13 15 1013.5 - - - - - - - - -
26/04:30am 25.2 W 12 14 1013.4 - - - - - - - - -
26/04:00am 25.2 W 13 17 1013.3 - - - - - - - - -
26/03:30am 25.3 WNW 13 15 1013.2 - - - - - - - - -
26/03:00am 25.1 WNW 13 16 1012.9 - - - - - - - - -
26/02:30am 25.0 WNW 13 16 1013.3 - - - - - - - - -
26/02:00am 25.1 ENE 13 15 1013.4 - - - - - - - - -
26/01:30am 25.0 ENE 12 15 1013.6 - - - - - - - - -
26/01:00am 25.0 ENE 12 15 1013.6 - - - - - - - - -
26/12:30am 25.0 ENE 13 15 1013.7 - - - - - - - - -
26/12:00am 25.0 ENE 12 14 1013.6 - - - - - - - - -
 
Date/Time
WST
Temp

°C
Wind Pressure Rain
since 9am
mm
Weather Cloud Vis
km
Sea
Height
m
Swell
Dir
 
Speed
knots
Gust
knots
hPa Trend Height
m
Period
s
Dir
25/10:30pm 24.8 ENE 10 13 1014.0 - - - - - - - - -
25/10:00pm 24.7 ENE 9 11 1014.1 - - - - - - - - -
25/09:30pm 24.4 ENE 8 10 1014.1 - - - - - - - - -
25/08:30pm 24.4 ENE 7 9 1014.2 - - - - - - - - -
25/08:00pm 24.5 ENE 8 9 1014.0 - - - - - - - - -
25/07:30pm 24.5 ENE 8 9 1013.8 - - - - - - - - -
25/05:00pm 26.5 ENE 6 8 1012.5 - - - - - - - - -
25/04:30pm 26.9 ENE 7 8 1012.3 - - - - - - - - -
25/04:00pm 27.2 ENE 6 9 1012.1 - - - - - - - - -
25/03:30pm 27.6 ENE 6 8 1012.0 - - - - - - - - -
25/03:00pm 27.5 ENE 7 8 1011.8 - - - - - - - - -
25/02:30pm 27.7 ENE 6 9 1012.0 - - - - - - - - -
25/02:00pm 28.0 ENE 6 7 1012.0 - - - - - - - - -
25/01:30pm 28.0 ENE 5 7 1012.1 - - - - - - - - -
25/01:00pm 28.0 ENE 5 6 1012.5 - - - - - - - - -
25/12:30pm 27.7 ENE 5 7 1012.9 - - - - - - - - -
25/12:00pm 27.5 ENE 5 7 1013.3 - - - - - - - - -
25/11:30am 27.7 ENE 6 8 1013.8 - - - - - - - - -
25/10:30am 27.6 ENE 7 9 1014.2 - - - - - - - - -
25/10:00am 27.4 ENE 7 9 1014.3 - - - - - - - - -
25/09:30am 27.1 ENE 7 9 1014.3 - - - - - - - - -
25/09:00am 27.0 ENE 7 8 1014.2 - - - - - - - - -
25/08:30am 26.5 ENE 7 8 1014.2 - - - - - - - - -
25/08:00am 26.2 ENE 6 7 1014.0 - - - - - - - - -
25/07:30am 25.2 ENE 6 7 1013.8 - - - - - - - - -
25/07:00am 24.6 ENE 6 7 1013.5 - - - - - - - - -
25/06:30am 24.0 ENE 6 7 1013.1 - - - - - - - - -
25/06:00am 24.2 ENE 6 8 1012.8 - - - - - - - - -
25/05:30am 24.4 ENE 6 8 1012.6 - - - - - - - - -
25/05:00am 24.4 ENE 7 8 1012.4 - - - - - - - - -
25/04:30am 24.3 ENE 6 8 1012.4 - - - - - - - - -
25/04:00am 24.5 ENE 5 7 1012.3 - - - - - - - - -
25/03:30am 24.5 ENE 6 7 1012.3 - - - - - - - - -
25/03:00am 24.7 ENE 6 7 1012.4 - - - - - - - - -
25/02:30am 24.8 ENE 7 8 1012.5 - - - - - - - - -
25/02:00am 25.0 ENE 8 9 1012.8 - - - - - - - - -
25/01:30am 25.1 ENE 8 9 1012.9 - - - - - - - - -
25/01:00am 25.1 ENE 9 11 1013.2 - - - - - - - - -
25/12:00am 25.0 ENE 9 11 1013.1 - - - - - - - - -
 
Date/Time
WST
Temp

°C
Wind Pressure Rain
since 9am
mm
Weather Cloud Vis
km
Sea
Height
m
Swell
Dir
 
Speed
knots
Gust
knots
hPa Trend Height
m
Period
s
Dir
24/11:30pm 25.0 ENE 9 10 1013.3 - - - - - - - - -
24/11:00pm 25.1 ENE 10 11 1013.3 - - - - - - - - -
24/10:30pm 25.1 ENE 11 13 1013.5 - - - - - - - - -
24/10:00pm 24.9 ENE 11 12 1013.7 - - - - - - - - -
24/09:30pm 24.6 ENE 10 12 1013.7 - - - - - - - - -
24/09:00pm 24.1 ENE 9 10 1013.8 - - - - - - - - -
24/08:30pm 24.3 ENE 7 9 1014.0 - - - - - - - - -
24/08:00pm 24.4 ENE 7 7 1013.9 - - - - - - - - -
24/07:30pm 24.3 ENE 6 7 1013.8 - - - - - - - - -
24/07:00pm 24.5 ENE 7 9 1013.6 - - - - - - - - -
24/06:30pm 24.7 ENE 7 8 1013.4 - - - - - - - - -
24/06:00pm 24.9 ENE 7 8 1013.1 - - - - - - - - -
24/05:30pm 25.3 ENE 8 9 1013.1 - - - - - - - - -
24/05:00pm 26.0 ENE 8 9 1013.0 - - - - - - - - -
24/04:30pm 26.6 ENE 7 9 1013.0 - - - - - - - - -
24/04:00pm 26.9 ENE 8 10 1012.7 - - - - - - - - -
24/03:30pm 27.3 ENE 9 11 1012.6 - - - - - - - - -
24/03:00pm 27.5 ENE 9 11 1012.4 - - - - - - - - -
24/02:30pm 27.5 ENE 8 9 1012.7 - - - - - - - - -
24/02:00pm 27.6 ENE 8 10 1013.0 - - - - - - - - -
24/01:30pm 27.5 ENE 9 11 1013.2 - - - - - - - - -
24/01:00pm 28.4 ENE 9 11 1013.3 - - - - - - - - -
24/12:30pm 28.7 ENE 10 12 1013.5 - - - - - - - - -
24/12:00pm 28.2 ENE 11 14 1013.9 - - - - - - - - -
24/11:30am 28.5 ENE 13 15 1014.5 - - - - - - - - -
24/11:00am 27.5 ENE 13 15 1014.9 - - - - - - - - -
24/10:30am 27.4 ENE 13 16 1015.1 - - - - - - - - -
24/10:00am 27.3 ENE 14 16 1015.2 - - - - - - - - -
24/09:30am 27.2 ENE 14 16 1015.2 - - - - - - - - -
24/09:00am 28.1 ENE 10 12 1015.0 - - - - - - - - -
24/08:30am 28.1 ENE 8 9 1015.0 - - - - - - - - -
24/08:00am 27.3 ENE 8 9 1014.8 - - - - - - - - -
24/07:30am 26.5 ENE 8 9 1014.6 - - - - - - - - -
24/07:00am 25.6 ENE 8 9 1014.4 - - - - - - - - -
24/06:30am 25.4 ENE 8 9 1014.2 - - - - - - - - -
24/06:00am 25.4 ENE 8 9 1013.9 - - - - - - - - -
24/05:30am 25.3 ENE 7 9 1013.8 - - - - - - - - -
24/05:00am 25.4 ENE 8 9 1013.6 - - - - - - - - -
24/04:30am 25.4 ENE 9 10 1013.6 - - - - - - - - -
24/04:00am 25.6 ENE 10 11 1013.5 - - - - - - - - -
24/03:30am 25.9 ENE 11 14 1013.4 - - - - - - - - -
24/03:00am 25.8 ENE 10 12 1013.3 - - - - - - - - -
24/02:30am 25.8 ENE 11 12 1013.5 - - - - - - - - -
24/02:00am 26.0 ENE 12 15 1013.5 - - - - - - - - -
24/01:30am 26.0 ENE 12 15 1013.6 - - - - - - - - -
24/01:00am 26.2 ENE 13 15 1013.7 - - - - - - - - -
24/12:30am 26.0 ENE 15 17 1013.9 - - - - - - - - -
24/12:00am 26.0 ENE 15 17 1014.0 - - - - - - - - -
 
Date/Time
WST
Temp

°C
Wind Pressure Rain
since 9am
mm
Weather Cloud Vis
km
Sea
Height
m
Swell
Dir
 
Speed
knots
Gust
knots
hPa Trend Height
m
Period
s
Dir
23/11:30pm 26.3 ENE 15 19 1014.2 - - - - - - - - -
23/11:00pm 26.1 ENE 16 18 1014.6 - - - - - - - - -
23/10:30pm 26.1 ENE 17 19 1014.6 - - - - - - - - -
23/10:00pm 26.1 ENE 18 20 1014.6 - - - - - - - - -
23/09:30pm 26.0 ENE 17 19 1014.8 - - - - - - - - -
23/09:00pm 26.1 ENE 18 21 1014.7 - - - - - - - - -
23/08:30pm 25.9 ENE 17 21 1014.7 - - - - - - - - -
23/08:00pm 25.7 ENE 17 19 1014.7 - - - - - - - - -
23/07:30pm 25.9 ENE 17 19 1014.4 - - - - - - - - -
23/07:00pm 26.2 ENE 17 19 1014.1 - - - - - - - - -
23/06:30pm 26.0 ENE 14 16 1013.9 - - - - - - - - -
23/06:00pm 26.0 ENE 13 15 1013.8 - - - - - - - - -
23/05:30pm 26.0 ENE 14 16 1013.6 - - - - - - - - -
23/05:00pm 26.4 ENE 15 16 1013.5 - - - - - - - - -

Other Formats:

Comma delimited format used in spreadsheet applications
http://www.bom.gov.au/fwo/IDW60701/IDW60701.94310.axf

JavaScript Object Notation format (JSON) in row-major order
http://www.bom.gov.au/fwo/IDW60701/IDW60701.94310.json